Regional Weather Roundup
Issued by NWS

Home | Current Version | Previous Version | Graphics & Text | Print | Product List | Glossary On
Versions: 1 2 3 4 5 6 7 8 9 10 11 12 13 14 15 16 17 18 19 20 21 22 23 24 25 26 27 28 29 30 31 32 33 34 35 36 37 38 39 40 41 42 43 44 45 46 47 48 49 50
000
ASUS43 KFSD 220402
RWRSD

WEATHER ROUNDUP FOR SOUTH DAKOTA
NATIONAL WEATHER SERVICE SIOUX FALLS SD
1100 PM CDT SAT APR 21 2018

NOTE: "FAIR" INDICATES FEW OR NO CLOUDS BELOW 12,000 FEET WITH NO
SIGNIFICANT WEATHER AND/OR OBSTRUCTIONS TO VISIBILITY.


SDZ001>005-009-010-012>017-220500-
NORTHWEST AND NORTH CENTRAL SOUTH DAKOTA

CITY           SKY/WX    TMP DP  RH WIND       PRES   REMARKS
BUFFALO          N/A     43  36  76 SE14      30.03R
FAITH            N/A     41  38  89 S21       30.15R
MOBRIDGE       PTCLDY    41  35  79 SE10      30.20S
$$

SDZ012>016-024>037-041>051-057-063-072>074-220500-
SOUTHWEST AND SOUTH CENTRAL SOUTH DAKOTA

CITY           SKY/WX    TMP DP  RH WIND       PRES   REMARKS
RAPID CTY ARPT CLEAR     40  35  83 S13       30.15R
PIERRE         CLEAR     39  37  92 SE9       30.23R
CUSTER         PTCLDY    33  30  88 CALM      30.14R
ELLSWORTH AFB  CLEAR    N/A N/A N/A S21       30.13R
PHILIP         PTCLDY    40  37  89 SE5       30.21R
PINE RIDGE     CLEAR     41  36  82 SE9       30.19R
SPEARFISH      FAIR      48  34  57 S3        30.09R
WINNER         FAIR      40  33  76 S7        30.27R
$$

SDZ004>011-016>023-039-040-220500-
NORTHEAST SOUTH DAKOTA

CITY           SKY/WX    TMP DP  RH WIND       PRES   REMARKS
ABERDEEN       PTCLDY    36  33  89 S6        30.29R
WATERTOWN      CLEAR     39  32  76 SE5       30.29S
BROOKINGS      CLEAR     36  31  82 CALM      30.31
SISSETON         N/A     40  35  83 S8        30.30S
$$

SDZ017-020-022-023-036>040-048>070-220500-
SOUTHEAST SOUTH DAKOTA

CITY           SKY/WX    TMP DP  RH WIND       PRES   REMARKS
SIOUX FALLS    MOCLDY    42  33  70 E9        30.30S
HURON          CLEAR     40  34  79 SE6       30.28S
CHAMBERLAIN    CLOUDY    41  40  96 CALM      30.28R
MITCHELL       MOCLDY    38  34  85 E7        30.30R
YANKTON        CLOUDY    46  38  73 E6        30.28S
$$

ABBREVIATIONS USED IN REMARKS
   TC - TEMPERATURE IN CELSIUS
  WCI - WIND CHILL INDEX
   HX - HEAT INDEX
  VSB - VISIBILITY





USA.gov is the U.S. government's official web portal to all federal, state and local government web resources and services.